Flag for Poland Weather past 2 weeks in Szczecin, Poland

Now
46 °F

Passing clouds.


Feels Like: 46 °F
Forecast: 48 / 72 °F
Wind: 2 mph from North

Location: Szczecin Airport


UV Index: 0 (Low)

Visibility: N/A


Pressure: 30.15 "Hg

Humidity: 100%

Dew point: 46 °F

Location of SzczecinLocation

Historic Weather in Szczecin

°F

Szczecin temperature yesterday

Maximum temperature yesterday: 72 °F (at 2:00 PM)
Minimum temperature yesterday: 50 °F (at 6:00 AM)
Average temperature yesterday: 60 °F

Past Weeks' High & Low Weather Summary

 TemperatureHumidityPressure
High72 °F (Apr 22, 2:00 PM)100% (Apr 10, 8:00 AM)30.42 "Hg (Apr 10, 8:00 AM)
Low30 °F (Apr 16, 5:00 AM)35% (Apr 16, 11:00 AM)29.59 "Hg (Apr 14, 9:30 AM)
Average49 °F77%29.99 "Hg
* Reported Apr 8 8:00 PM — Apr 23 8:30 PM, Szczecin, Weather by CustomWeather, © 2014

Note: Actual official high and low records may vary slightly from our data, if they occured in-between our weather recording intervals... More about our weather records

Advertising

Historic Weather Conditions — Data for Previous 24 hours

 ConditionsComfort  
Time TempWeatherWind HumidityBarometerVisibility
8:30 PM
Apr 23
48 °FPassing clouds.3 mph94%30.15 "HgN/A
8:00 PM48 °FSprinkles. Passing clouds.3 mph100%30.15 "HgN/A
7:30 PM48 °FSprinkles. Scattered clouds.7 mph94%30.12 "HgN/A
7:00 PM50 °FSprinkles. Scattered clouds.5 mph94%30.12 "HgN/A
6:30 PM50 °FSprinkles. Partly sunny.8 mph94%30.12 "Hg4 mi
6:00 PM54 °FBroken clouds.5 mph77%30.12 "HgN/A
5:30 PM55 °FSprinkles. Scattered clouds.3 mph77%30.12 "HgN/A
5:00 PM55 °FPassing clouds.6 mph77%30.12 "HgN/A
4:30 PM55 °FPassing clouds.8 mph77%30.12 "HgN/A
4:00 PM59 °FScattered clouds.7 mph72%30.12 "HgN/A
3:30 PM61 °FScattered clouds.9 mph68%30.12 "HgN/A
3:00 PM61 °FPassing clouds.8 mph72%30.12 "HgN/A
2:30 PM61 °FScattered clouds.8 mph77%30.12 "HgN/A
2:00 PM61 °FPartly sunny.9 mph83%30.12 "HgN/A
1:30 PM61 °FScattered clouds.8 mph77%30.12 "HgN/A
1:00 PM63 °FScattered clouds.6 mph73%30.12 "HgN/A
12:30 PM61 °FPassing clouds.3 mph77%30.12 "HgN/A
12:00 PM59 °FPassing clouds.3 mph82%30.12 "HgN/A
11:30 AM59 °FSprinkles. Passing clouds.3 mph82%30.12 "HgN/A
11:00 AM59 °FSunny.3 mph82%30.12 "Hg10 mi
10:30 AM59 °FSunny.6 mph77%30.09 "Hg10 mi
10:00 AM59 °FSunny.7 mph77%30.09 "Hg10 mi
9:30 AM57 °FSunny.5 mph82%30.09 "Hg10 mi
9:00 AM55 °FSunny.No wind88%30.09 "Hg10 mi
8:30 AM55 °FSunny.3 mph82%30.07 "Hg10 mi
8:00 AM55 °FSunny.3 mph82%30.07 "Hg10 mi
7:30 AM54 °FSunny.3 mph88%30.07 "Hg10 mi
7:00 AM54 °FSunny.5 mph88%30.07 "Hg10 mi
6:30 AM54 °FClear.5 mph88%30.07 "Hg10 mi
6:00 AM54 °FClear.3 mph88%30.04 "Hg10 mi
5:30 AM54 °FClear.6 mph88%30.04 "Hg10 mi
5:00 AM55 °FClear.5 mph82%30.04 "Hg10 mi
4:30 AM54 °FClear.3 mph88%30.04 "Hg10 mi
4:00 AM54 °FClear.5 mph88%30.04 "Hg10 mi
3:30 AM52 °FClear.5 mph88%30.04 "Hg10 mi
3:00 AM54 °FClear.5 mph82%30.01 "Hg10 mi
2:30 AM54 °FClear.6 mph82%30.01 "Hg10 mi
2:00 AM54 °FClear.5 mph82%30.01 "Hg10 mi
1:30 AM54 °FClear.6 mph88%30.01 "Hg10 mi
1:00 AM54 °FClear.5 mph88%30.01 "Hg10 mi
12:30 AM54 °FPassing clouds.3 mph88%30.01 "HgN/A
12:00 AM55 °FPassing clouds.5 mph88%30.01 "HgN/A
11:30 PM
Apr 22
54 °FClear.No wind94%29.98 "Hg5 mi
11:00 PM55 °FPassing clouds.No wind94%29.98 "HgN/A
10:30 PM55 °FPassing clouds.No wind94%29.98 "HgN/A
10:00 PM57 °FPassing clouds.2 mph88%29.98 "HgN/A
9:30 PM57 °FPassing clouds.3 mph88%29.98 "HgN/A
9:00 PM59 °FSprinkles. Partly sunny.2 mph82%29.98 "HgN/A
Weather by CustomWeather, © 2014

See weather overview